Location: Trebic
(49.2170°N, 15.8830°E)
Time: 10:43:02
(UTC+02:00)

Transit 4A - Pass Details

Date: 02 September 2019
Orbit: 865 x 980 km, 66.8° (Epoch: 18 September)

Event Time Altitude Azimuth Distance (km) Brightness Sun altitude
Rises 18:03:17 0° 241° (WSW) 3,674 12.3 14.6°
Reaches altitude 10° 18:06:01 10° 248° (WSW) 2,729 12.1 14.1°
Maximum altitude 18:12:03 42° 318° (NW) 1,363 9.5 13.1°
Drops below altitude 10° 18:18:02 10° 29° (NNE) 2,705 10.1 12.2°
Sets 18:20:45 0° 36° (NE) 3,639 10.6 11.7°
